SCP
0 0 0 0 0 0 0 0 0 0 0 -0 0 0 0 -0 -0 0 0 0 0 0 0 0 0 0 0 0 -0 0 0 0 0 0 0 0 0 0 0 0 0 0 0 -0
0 0 0 0 0 0 0 0 0 0 -0 -0 0 -0 -0 -0 -0 0 0 0 0 0 0 0 0 -0 -0 -0 0 0 0 0 0 0 0 0 0 0 0 0 0 0 0 0
0 0 0 0 0 0 0 0 0 0 -0 0 0 -0 -0 0 -0 -0 0 0 0 -0 -0 0 0 0 0 0 -0 -0 0 0 0 0 0 0 0 0 0 0 0 0 0 0
0 0 0 0 0 0 0 0 0 0 0 0 -0 -0 -0 -0 -0 0 0 0 0 0 0 0 0 0 0 -0 0 0 0 0 0 0 0 0 0 0 0 0 0 0 0 0
0 0 0 0 -0 0 0 0 0 0 0 0 0 0 0 0 -0 -0 0 0 0 -0 -0 0 0 0 0 0 0 0 0 0 0 0 0 0 0 0 0 0 0 0 0 0
0 0 0 0 0 0 0 0 -0 0 0 0 -0 0 -0 -0 -0 0 0 -0 -0 -0 0 0 0 0 0 0 0 0 0 0 0 0 0 0 0 0 0 0 0 0 0 0
0 0 0 0 0 0 0 0 0 0 0 0 0 0 0 -0 0 0 -0 -0 -0 0 0 0 0 0 0 0 0 0 0 0 0 0 0 0 0 0 0 0 0 0 0 0
0 0 0 0 0 0 0 0 0 0 0 0 0 0 -0 -0 -0 -0 -0 -0 0 0 0 0 0 0 0 0 0 0 0 0 0 0 0 0 0 0 0 0 0 0 0 0
0 0 0 0 0 0 0 0 0 -0 0 0 1 1 -0 -0 -0 -0 -0 0 0 0 0 0 0 0 0 0 0 0 0 0 0 0 0 0 0 0 0 0 0 0 0 0
0 0 0 0 0 0 0 0 0 0 0 1 1 0 -0 -0 -0 -0 0 0 0 0 0 0 0 0 0 0 0 0 0 0 0 0 0 0 0 0 0 0 0 0 0 0
0 0 0 0 0 0 0 0 0 0 0 1 1 1 0 0 -0 -0 0 0 0 0 0 0 0 0 0 0 0 0 0 0 0 0 0 0 0 0 0 0 0 0 0 0
0 0 0 0 0 0 0 0 0 0 1 1 1 0 0 0 -0 -0 -0 0 0 0 0 0 0 0 0 0 0 0 0 0 0 0 0 0 0 0 0 0 0 0 0 -0
0 0 0 0 0 0 0 0 0 0 0 0 0 0 0 0 0 0 -0 0 0 0 0 0 0 0 0 0 0 0 0 0 0 0 0 0 0 0 0 0 0 0 0 0
0 0 0 -0 0 0 0 0 0 0 0 0 0 1 0 0 0 0 0 0 0 0 0 0 0 0 0 0 0 0 0 0 0 0 0 0 0 0 0 0 0 0 0 -0
0 0 -0 0 -0 -0 0 0 0 0 0 0 0 0 0 0 0 0 0 0 0 0 0 0 0 0 0 0 0 0 0 0 0 0 0 0 0 0 0 0 0 0 -0 0
0 0 0 0 0 -0 -0 -0 0 0 0 0 0 0 0 0 0 0 0 0 0 0 0 0 0 0 0 0 0 0 0 0 0 0 0 0 0 0 0 0 0 0 0 0
0 0 0 0 0 0 -0 -0 -0 0 0 0 0 0 0 0 0 0 0 0 0 0 0 0 0 0 0 0 0 0 0 0 0 0 0 0 0 0 0 0 0 0 0 0
-0 0 0 0 0 0 0 -0 -0 -0 0 0 0 0 0 0 0 0 0 0 0 0 0 0 0 0 0 0 0 0 0 0 0 0 0 0 0 0 0 0 0 0 0 0
0 0 0 0 0 0 0 0 0 -0 -0 0 0 0 0 0 0 0 0 0 0 0 0 0 0 0 0 0 0 0 0 0 0 0 0 0 0 0 0 0 0 0 0 0
0 0 0 0 0 0 0 0 0 0 -0 -0 0 0 0 0 0 0 0 0 0 0 0 0 0 0 0 0 0 0 0 0 0 0 0 0 0 0 0 0 0 0 0 0
0 0 0 0 0 0 0 0 0 0 -0 -0 0 0 0 0 0 0 0 0 0 0 0 0 0 0 0 0 0 0 0 0 0 0 0 0 0 0 0 0 0 0 0 0
0 0 0 0 0 0 0 0 0 0 0 -0 0 0 0 0 0 0 0 0 0 0 0 0 0 0 0 0 0 0 0 0 0 0 0 0 0 0 0 0 0 0 0 0
0 0 0 0 0 -0 0 0 0 0 0 -0 0 0 0 0 0 0 0 0 0 0 0 0 0 0 0 0 0 0 0 0 0 0 0 0 0 0 0 0 0 0 0 0
0 0 0 0 0 0 -0 0 0 0 0 0 0 -0 -0 0 0 0 0 0 0 0 0 0 0 0 0 0 0 0 0 0 0 0 0 0 0 0 0 0 0 0 0 0
0 -0 0 0 0 0 0 0 0 0 0 0 0 0 0 0 0 0 0 0 0 0 0 0 0 0 0 0 0 0 0 0 0 0 0 0 0 0 0 0 0 0 0 0
-0 -0 -0 0 0 0 0 0 0 0 0 0 0 0 0 0 0 0 0 0 0 0 0 0 0 0 0 0 0 0 0 0 0 0 0 0 0 0 0 0 0 0 0 0
-0 -0 0 0 0 0 0 0 0 0 0 0 0 0 0 0 0 0 0 0 0 -0 -0 0 0 0 0 0 0 0 0 0 0 0 0 0 0 0 0 0 0 0 0 0
Wind_Speed_500mb
8 13 3 6 8 12 10 10 11 11 17 17 22 18 24 20 11 3 8 20 19 12 7 12 17 22 17 21 23 19 20 18 18 26 35 40 41 42 42 48 43 33 29 32
2 7 8 9 14 12 13 10 7 11 11 14 22 30 15 18 24 13 12 27 30 26 27 34 29 29 34 32 24 20 17 17 17 15 16 19 24 27 27 33 37 33 34 29
6 7 3 8 12 8 7 9 19 12 21 9 11 27 45 43 36 30 23 45 47 43 36 35 36 34 29 21 24 21 19 13 10 12 15 17 19 21 27 30 35 35 30 28
5 6 2 15 12 10 13 8 15 5 12 28 14 17 40 53 55 47 43 54 48 40 43 39 33 25 22 25 20 15 10 6 6 8 11 13 16 17 18 20 20 19 19 20
8 6 11 7 11 10 11 8 16 13 10 26 37 32 16 44 55 64 60 64 61 58 50 41 33 29 26 21 12 10 6 5 7 8 11 12 15 17 19 20 22 24 24 25
5 6 12 16 9 22 6 4 16 21 18 29 43 10 12 60 56 63 63 74 73 63 49 43 37 28 19 13 9 8 6 7 11 12 10 8 7 6 6 8 10 11 11 10
3 6 14 14 33 10 9 15 19 39 50 50 18 26 42 70 63 63 64 74 68 59 49 37 29 20 12 8 8 6 9 10 8 2 3 5 7 9 11 11 10 9 9 9
4 7 9 51 19 9 19 52 38 36 68 72 46 33 38 69 68 74 78 83 78 60 29 33 23 16 11 6 7 9 7 6 8 13 10 9 10 11 10 11 9 8 9 9
9 8 10 16 18 32 42 41 34 39 69 83 78 57 58 69 69 72 72 77 71 51 52 35 27 14 8 9 9 8 6 12 13 11 9 8 6 6 11 13 18 25 24 23
4 9 14 12 48 63 69 63 54 30 68 79 80 74 70 80 75 77 80 73 58 45 38 31 20 15 12 10 10 9 10 11 9 8 7 6 5 5 7 14 18 18 19 22
9 9 36 15 53 55 63 66 58 13 60 92 91 78 79 89 88 89 88 73 59 49 38 30 23 17 13 13 12 13 15 13 10 10 11 10 10 14 10 14 14 14 15 20
8 31 11 33 61 50 50 59 73 42 24 53 94 91 87 88 95 102 89 77 70 56 44 33 24 21 18 14 15 18 17 11 6 6 9 15 25 20 17 12 14 16 15 23
18 43 57 50 44 41 43 47 57 68 16 51 72 89 95 98 104 106 91 85 74 58 46 36 31 26 20 17 20 21 17 15 14 17 27 34 31 23 22 23 17 17 23 30
28 38 46 51 50 47 49 42 51 62 29 53 81 85 94 106 106 102 97 87 71 59 48 38 33 24 21 24 27 23 21 19 23 34 31 30 30 18 16 12 11 16 24 31
27 34 45 46 42 41 40 36 41 53 56 38 81 91 104 105 106 102 94 81 68 59 47 40 33 29 31 33 30 24 24 23 31 28 23 26 20 12 9 14 12 16 21 26
18 16 32 30 33 29 24 24 29 42 53 29 77 97 113 110 109 104 95 82 75 62 48 40 34 35 37 39 31 28 29 27 28 27 23 19 14 13 14 10 10 11 13 17
12 17 22 29 19 19 14 6 13 23 36 7 61 74 77 91 103 99 88 75 63 48 41 38 39 41 44 39 31 31 30 29 35 30 25 19 14 14 11 8 11 12 13 15
7 6 3 19 27 22 26 13 7 14 14 17 37 63 76 92 116 103 86 73 59 49 44 41 41 43 44 40 34 28 33 35 34 29 24 17 12 12 11 10 14 19 21 18
8 6 2 16 24 5 25 16 16 4 11 10 19 53 68 75 98 94 81 73 64 58 50 47 44 44 41 40 37 33 38 36 29 22 18 12 12 7 3 7 12 19 24 21
14 13 11 10 19 19 6 24 33 25 14 20 12 31 53 68 88 81 75 72 67 57 53 50 47 47 45 42 41 43 37 34 29 26 21 15 9 4 6 7 15 26 27 24
10 16 18 24 9 17 17 9 29 47 51 45 20 19 30 76 79 79 77 68 63 50 48 49 50 51 46 40 42 46 37 33 27 22 22 11 3 2 8 11 17 28 31 33
7 20 24 28 13 12 13 13 9 39 54 71 90 61 32 34 68 71 66 69 64 52 50 52 50 52 47 45 43 34 31 35 32 24 22 11 6 9 11 15 17 26 30 30
12 22 27 26 16 15 11 20 4 9 24 48 65 60 46 53 70 71 72 61 56 51 52 51 48 54 55 53 41 34 29 33 30 20 14 12 13 15 18 22 21 24 26 30
16 22 27 26 20 19 20 18 7 8 10 20 34 32 34 43 73 77 60 60 56 52 57 53 54 55 54 46 39 40 28 26 21 14 14 18 21 23 24 26 26 27 31 32
31 30 31 31 31 27 21 19 14 5 4 10 46 37 26 56 77 69 53 55 54 56 57 53 52 53 47 41 42 33 32 26 25 20 19 22 26 30 30 29 29 29 32 36
44 52 55 45 38 31 29 26 19 13 8 9 38 37 36 40 48 53 41 52 52 54 55 49 49 46 41 38 35 24 27 27 28 27 28 30 29 31 32 31 32 31 36 40
57 57 64 55 46 37 35 28 25 26 20 9 15 29 42 51 56 54 58 57 55 54 54 50 44 41 37 35 30 28 27 27 28 31 35 38 40 37 32 33 33 32 40 45
Wind_Direction_500mb
233 252 234 257 238 172 163 174 147 229 196 251 199 202 226 246 255 161 73 127 138 157 179 197 209 206 211 220 217 220 226 228 245 257 256 254 251 252 259 269 264 267 267 262
326 338 249 276 276 220 186 133 58 129 245 235 135 181 181 213 222 217 96 135 152 144 151 148 142 154 158 159 167 191 199 214 219 225 245 250 253 255 255 253 257 262 271 266
270 312 5 332 246 186 130 151 146 152 220 164 151 174 200 206 211 209 175 171 162 158 155 140 147 152 146 155 176 195 200 193 215 238 234 236 241 246 253 262 270 277 278 278
204 30 105 247 306 223 145 182 209 228 177 189 178 177 203 208 209 205 188 184 171 173 166 157 158 159 164 175 190 211 219 216 224 239 252 255 258 260 259 261 266 269 275 277
138 159 281 308 268 181 149 246 198 208 132 130 137 131 174 206 203 192 188 188 182 180 174 170 170 175 180 183 191 208 216 243 260 276 280 275 270 273 272 271 273 275 277 279
103 164 189 239 288 320 79 232 216 180 157 141 138 147 230 193 193 187 185 192 185 182 172 169 161 159 163 162 191 226 241 275 295 302 298 291 289 287 305 336 346 353 343 331
164 200 284 358 306 328 140 237 212 191 170 159 177 201 197 193 194 193 194 198 187 175 172 166 160 162 165 180 206 256 289 289 284 296 117 108 84 77 66 52 33 10 349 340
133 165 239 358 356 48 312 310 301 204 187 186 187 171 172 174 181 191 194 189 173 165 193 166 167 161 156 197 266 273 257 214 161 151 149 135 107 95 57 28 9 26 21 12
164 196 303 330 357 354 352 335 323 261 202 196 187 180 180 177 182 185 185 180 170 180 174 168 164 161 203 238 257 252 203 170 163 172 161 152 144 94 64 76 85 86 75 66
86 230 335 353 9 5 9 357 351 269 212 191 188 184 177 179 178 176 178 184 186 178 169 162 162 195 222 244 239 211 180 169 171 183 171 143 144 134 78 105 90 84 69 56
292 328 344 235 352 352 356 4 6 337 210 192 194 187 187 185 182 181 180 180 181 180 175 171 184 198 216 216 203 184 168 165 177 212 221 217 176 154 134 119 82 59 37 27
278 305 281 309 330 331 345 358 1 355 201 200 195 190 187 186 188 182 177 179 178 177 176 177 185 201 208 196 182 179 178 185 181 189 173 160 161 150 121 107 93 81 50 9
283 297 299 307 327 339 334 340 341 348 252 202 199 195 192 186 186 182 179 177 176 176 176 179 191 195 189 188 180 176 179 158 139 137 133 132 141 131 116 111 90 60 28 18
322 324 298 297 308 312 329 315 323 329 308 206 204 196 189 186 182 183 179 178 177 175 174 186 190 181 185 182 172 168 162 145 139 137 139 144 153 134 127 132 108 57 29 34
301 303 316 300 288 297 305 311 310 324 336 217 206 197 193 191 189 185 180 176 176 175 179 188 180 179 171 168 166 162 156 148 148 144 141 147 152 144 140 136 96 48 34 27
290 298 304 315 281 267 282 304 313 330 336 218 198 197 201 197 191 180 179 178 176 179 184 181 183 178 172 165 161 153 146 141 151 155 146 141 139 118 119 98 64 43 25 19
275 313 2 355 325 233 241 249 331 326 331 243 197 195 192 191 184 178 178 176 182 181 183 184 182 177 173 168 160 153 148 139 143 145 145 144 123 107 102 62 21 7 356 343
175 194 36 18 348 292 196 174 85 344 326 351 197 194 191 197 180 177 176 176 176 181 183 185 181 177 174 171 163 156 154 144 148 144 139 135 124 81 63 40 19 359 342 334
75 132 13 46 39 0 205 189 206 335 8 9 193 186 185 184 181 174 171 176 180 181 184 182 179 180 176 173 164 159 156 156 155 151 145 135 139 128 91 2 3 356 347 328
47 41 44 62 54 42 236 227 208 217 275 40 93 169 177 186 179 174 175 184 190 190 184 179 180 180 173 165 162 165 160 160 152 150 150 145 178 230 272 323 357 0 356 336
48 19 10 354 2 45 29 16 222 215 232 240 280 39 175 181 184 183 186 187 186 184 182 180 179 179 176 173 175 178 181 182 175 170 169 166 140 344 287 331 347 354 354 352
332 337 345 345 322 349 340 8 56 219 233 229 225 250 272 230 195 199 195 188 178 179 184 178 178 182 177 177 176 187 196 195 185 188 197 210 292 310 313 325 336 345 355 353
293 323 323 332 342 290 297 290 35 81 213 229 216 238 251 264 217 205 191 187 184 181 180 177 174 173 177 181 184 183 177 178 190 191 199 241 286 298 311 316 321 337 346 353
268 296 310 317 311 278 277 277 236 98 133 194 210 229 258 233 216 209 199 186 184 179 177 174 173 174 176 184 192 186 192 185 190 199 253 268 277 289 300 315 318 320 333 331
258 277 292 292 292 279 256 280 228 217 153 190 200 192 215 240 206 190 190 189 180 173 176 174 175 176 180 182 183 191 201 201 205 231 248 263 287 292 292 302 306 308 326 331
254 273 280 279 283 279 249 260 215 195 198 106 179 205 218 223 200 190 191 185 179 178 178 178 180 183 187 188 194 208 208 215 223 234 253 265 292 295 282 295 293 303 321 323
261 270 271 271 266 260 245 249 217 191 180 192 187 197 207 198 185 178 180 182 184 183 179 176 179 185 184 191 199 196 202 218 234 251 263 271 282 295 283 288 285 303 313 313
Wind_Speed_850mb
8 13 3 6 8 12 10 10 11 11 17 17 22 18 24 20 11 3 8 20 19 12 7 12 17 22 17 21 23 19 20 18 18 26 35 40 41 42 42 48 43 33 29 32
2 7 8 9 14 12 13 10 7 11 11 14 22 30 15 18 24 13 12 27 30 26 27 34 29 29 34 32 24 20 17 17 17 15 16 19 24 27 27 33 37 33 34 29
6 7 3 8 12 8 7 9 19 12 21 9 11 27 45 43 36 30 23 45 47 43 36 35 36 34 29 21 24 21 19 13 10 12 15 17 19 21 27 30 35 35 30 28
5 6 2 15 12 10 13 8 15 5 12 28 14 17 40 53 55 47 43 54 48 40 43 39 33 25 22 25 20 15 10 6 6 8 11 13 16 17 18 20 20 19 19 20
8 6 11 7 11 10 11 8 16 13 10 26 37 32 16 44 55 64 60 64 61 58 50 41 33 29 26 21 12 10 6 5 7 8 11 12 15 17 19 20 22 24 24 25
5 6 12 16 9 22 6 4 16 21 18 29 43 10 12 60 56 63 63 74 73 63 49 43 37 28 19 13 9 8 6 7 11 12 10 8 7 6 6 8 10 11 11 10
3 6 14 14 33 10 9 15 19 39 50 50 18 26 42 70 63 63 64 74 68 59 49 37 29 20 12 8 8 6 9 10 8 2 3 5 7 9 11 11 10 9 9 9
4 7 9 51 19 9 19 52 38 36 68 72 46 33 38 69 68 74 78 83 78 60 29 33 23 16 11 6 7 9 7 6 8 13 10 9 10 11 10 11 9 8 9 9
9 8 10 16 18 32 42 41 34 39 69 83 78 57 58 69 69 72 72 77 71 51 52 35 27 14 8 9 9 8 6 12 13 11 9 8 6 6 11 13 18 25 24 23
4 9 14 12 48 63 69 63 54 30 68 79 80 74 70 80 75 77 80 73 58 45 38 31 20 15 12 10 10 9 10 11 9 8 7 6 5 5 7 14 18 18 19 22
9 9 36 15 53 55 63 66 58 13 60 92 91 78 79 89 88 89 88 73 59 49 38 30 23 17 13 13 12 13 15 13 10 10 11 10 10 14 10 14 14 14 15 20
8 31 11 33 61 50 50 59 73 42 24 53 94 91 87 88 95 102 89 77 70 56 44 33 24 21 18 14 15 18 17 11 6 6 9 15 25 20 17 12 14 16 15 23
18 43 57 50 44 41 43 47 57 68 16 51 72 89 95 98 104 106 91 85 74 58 46 36 31 26 20 17 20 21 17 15 14 17 27 34 31 23 22 23 17 17 23 30
28 38 46 51 50 47 49 42 51 62 29 53 81 85 94 106 106 102 97 87 71 59 48 38 33 24 21 24 27 23 21 19 23 34 31 30 30 18 16 12 11 16 24 31
27 34 45 46 42 41 40 36 41 53 56 38 81 91 104 105 106 102 94 81 68 59 47 40 33 29 31 33 30 24 24 23 31 28 23 26 20 12 9 14 12 16 21 26
18 16 32 30 33 29 24 24 29 42 53 29 77 97 113 110 109 104 95 82 75 62 48 40 34 35 37 39 31 28 29 27 28 27 23 19 14 13 14 10 10 11 13 17
12 17 22 29 19 19 14 6 13 23 36 7 61 74 77 91 103 99 88 75 63 48 41 38 39 41 44 39 31 31 30 29 35 30 25 19 14 14 11 8 11 12 13 15
7 6 3 19 27 22 26 13 7 14 14 17 37 63 76 92 116 103 86 73 59 49 44 41 41 43 44 40 34 28 33 35 34 29 24 17 12 12 11 10 14 19 21 18
8 6 2 16 24 5 25 16 16 4 11 10 19 53 68 75 98 94 81 73 64 58 50 47 44 44 41 40 37 33 38 36 29 22 18 12 12 7 3 7 12 19 24 21
14 13 11 10 19 19 6 24 33 25 14 20 12 31 53 68 88 81 75 72 67 57 53 50 47 47 45 42 41 43 37 34 29 26 21 15 9 4 6 7 15 26 27 24
10 16 18 24 9 17 17 9 29 47 51 45 20 19 30 76 79 79 77 68 63 50 48 49 50 51 46 40 42 46 37 33 27 22 22 11 3 2 8 11 17 28 31 33
7 20 24 28 13 12 13 13 9 39 54 71 90 61 32 34 68 71 66 69 64 52 50 52 50 52 47 45 43 34 31 35 32 24 22 11 6 9 11 15 17 26 30 30
12 22 27 26 16 15 11 20 4 9 24 48 65 60 46 53 70 71 72 61 56 51 52 51 48 54 55 53 41 34 29 33 30 20 14 12 13 15 18 22 21 24 26 30
16 22 27 26 20 19 20 18 7 8 10 20 34 32 34 43 73 77 60 60 56 52 57 53 54 55 54 46 39 40 28 26 21 14 14 18 21 23 24 26 26 27 31 32
31 30 31 31 31 27 21 19 14 5 4 10 46 37 26 56 77 69 53 55 54 56 57 53 52 53 47 41 42 33 32 26 25 20 19 22 26 30 30 29 29 29 32 36
44 52 55 45 38 31 29 26 19 13 8 9 38 37 36 40 48 53 41 52 52 54 55 49 49 46 41 38 35 24 27 27 28 27 28 30 29 31 32 31 32 31 36 40
57 57 64 55 46 37 35 28 25 26 20 9 15 29 42 51 56 54 58 57 55 54 54 50 44 41 37 35 30 28 27 27 28 31 35 38 40 37 32 33 33 32 40 45
Wind_Direction_850mb
233 252 234 257 238 172 163 174 147 229 196 251 199 202 226 246 255 161 73 127 138 157 179 197 209 206 211 220 217 220 226 228 245 257 256 254 251 252 259 269 264 267 267 262
326 338 249 276 276 220 186 133 58 129 245 235 135 181 181 213 222 217 96 135 152 144 151 148 142 154 158 159 167 191 199 214 219 225 245 250 253 255 255 253 257 262 271 266
270 312 5 332 246 186 130 151 146 152 220 164 151 174 200 206 211 209 175 171 162 158 155 140 147 152 146 155 176 195 200 193 215 238 234 236 241 246 253 262 270 277 278 278
204 30 105 247 306 223 145 182 209 228 177 189 178 177 203 208 209 205 188 184 171 173 166 157 158 159 164 175 190 211 219 216 224 239 252 255 258 260 259 261 266 269 275 277
138 159 281 308 268 181 149 246 198 208 132 130 137 131 174 206 203 192 188 188 182 180 174 170 170 175 180 183 191 208 216 243 260 276 280 275 270 273 272 271 273 275 277 279
103 164 189 239 288 320 79 232 216 180 157 141 138 147 230 193 193 187 185 192 185 182 172 169 161 159 163 162 191 226 241 275 295 302 298 291 289 287 305 336 346 353 343 331
164 200 284 358 306 328 140 237 212 191 170 159 177 201 197 193 194 193 194 198 187 175 172 166 160 162 165 180 206 256 289 289 284 296 117 108 84 77 66 52 33 10 349 340
133 165 239 358 356 48 312 310 301 204 187 186 187 171 172 174 181 191 194 189 173 165 193 166 167 161 156 197 266 273 257 214 161 151 149 135 107 95 57 28 9 26 21 12
164 196 303 330 357 354 352 335 323 261 202 196 187 180 180 177 182 185 185 180 170 180 174 168 164 161 203 238 257 252 203 170 163 172 161 152 144 94 64 76 85 86 75 66
86 230 335 353 9 5 9 357 351 269 212 191 188 184 177 179 178 176 178 184 186 178 169 162 162 195 222 244 239 211 180 169 171 183 171 143 144 134 78 105 90 84 69 56
292 328 344 235 352 352 356 4 6 337 210 192 194 187 187 185 182 181 180 180 181 180 175 171 184 198 216 216 203 184 168 165 177 212 221 217 176 154 134 119 82 59 37 27
278 305 281 309 330 331 345 358 1 355 201 200 195 190 187 186 188 182 177 179 178 177 176 177 185 201 208 196 182 179 178 185 181 189 173 160 161 150 121 107 93 81 50 9
283 297 299 307 327 339 334 340 341 348 252 202 199 195 192 186 186 182 179 177 176 176 176 179 191 195 189 188 180 176 179 158 139 137 133 132 141 131 116 111 90 60 28 18
322 324 298 297 308 312 329 315 323 329 308 206 204 196 189 186 182 183 179 178 177 175 174 186 190 181 185 182 172 168 162 145 139 137 139 144 153 134 127 132 108 57 29 34
301 303 316 300 288 297 305 311 310 324 336 217 206 197 193 191 189 185 180 176 176 175 179 188 180 179 171 168 166 162 156 148 148 144 141 147 152 144 140 136 96 48 34 27
290 298 304 315 281 267 282 304 313 330 336 218 198 197 201 197 191 180 179 178 176 179 184 181 183 178 172 165 161 153 146 141 151 155 146 141 139 118 119 98 64 43 25 19
275 313 2 355 325 233 241 249 331 326 331 243 197 195 192 191 184 178 178 176 182 181 183 184 182 177 173 168 160 153 148 139 143 145 145 144 123 107 102 62 21 7 356 343
175 194 36 18 348 292 196 174 85 344 326 351 197 194 191 197 180 177 176 176 176 181 183 185 181 177 174 171 163 156 154 144 148 144 139 135 124 81 63 40 19 359 342 334
75 132 13 46 39 0 205 189 206 335 8 9 193 186 185 184 181 174 171 176 180 181 184 182 179 180 176 173 164 159 156 156 155 151 145 135 139 128 91 2 3 356 347 328
47 41 44 62 54 42 236 227 208 217 275 40 93 169 177 186 179 174 175 184 190 190 184 179 180 180 173 165 162 165 160 160 152 150 150 145 178 230 272 323 357 0 356 336
48 19 10 354 2 45 29 16 222 215 232 240 280 39 175 181 184 183 186 187 186 184 182 180 179 179 176 173 175 178 181 182 175 170 169 166 140 344 287 331 347 354 354 352
332 337 345 345 322 349 340 8 56 219 233 229 225 250 272 230 195 199 195 188 178 179 184 178 178 182 177 177 176 187 196 195 185 188 197 210 292 310 313 325 336 345 355 353
293 323 323 332 342 290 297 290 35 81 213 229 216 238 251 264 217 205 191 187 184 181 180 177 174 173 177 181 184 183 177 178 190 191 199 241 286 298 311 316 321 337 346 353
268 296 310 317 311 278 277 277 236 98 133 194 210 229 258 233 216 209 199 186 184 179 177 174 173 174 176 184 192 186 192 185 190 199 253 268 277 289 300 315 318 320 333 331
258 277 292 292 292 279 256 280 228 217 153 190 200 192 215 240 206 190 190 189 180 173 176 174 175 176 180 182 183 191 201 201 205 231 248 263 287 292 292 302 306 308 326 331
254 273 280 279 283 279 249 260 215 195 198 106 179 205 218 223 200 190 191 185 179 178 178 178 180 183 187 188 194 208 208 215 223 234 253 265 292 295 282 295 293 303 321 323
261 270 271 271 266 260 245 249 217 191 180 192 187 197 207 198 185 178 180 182 184 183 179 176 179 185 184 191 199 196 202 218 234 251 263 271 282 295 283 288 285 303 313 313